Wetterdaten: Samstag, 24.08.2013
Datum Zeit Temperatur Luftfeuchte Luftdruck Regen Wind Richtung Richtung Taupunkt Windchill Windben
24.08.2013 00:00 12,7 C 87 % 1019,1 hPa 0,0 l/m 1,1 km/h (1 Bft) NO 45 10,6 C 12,2 C 2,1 km/h (1 Bft)
24.08.2013 00:05 12,8 C 88 % 1019,1 hPa 0,0 l/m 0,8 km/h (0 Bft) O-NO 67 10,9 C 12,2 C 3,2 km/h (1 Bft)
24.08.2013 00:10 12,8 C 88 % 1019,1 hPa 0,0 l/m 1,6 km/h (1 Bft) NO 45 10,9 C 12,2 C 2,6 km/h (1 Bft)
24.08.2013 00:15 12,6 C 88 % 1019,1 hPa 0,0 l/m 1,8 km/h (1 Bft) O-SO 112 10,7 C 12,1 C 1,8 km/h (1 Bft)
24.08.2013 00:20 12,6 C 88 % 1019,1 hPa 0,0 l/m 1,0 km/h (0 Bft) O 90 10,7 C 12,0 C 1,8 km/h (1 Bft)
24.08.2013 00:25 12,5 C 88 % 1019,1 hPa 0,0 l/m 1,8 km/h (1 Bft) O-NO 67 10,6 C 11,9 C 3,7 km/h (1 Bft)
24.08.2013 00:30 12,4 C 88 % 1019,1 hPa 0,0 l/m 2,6 km/h (1 Bft) O-NO 67 10,5 C 12,0 C 1,9 km/h (1 Bft)
24.08.2013 00:35 12,1 C 88 % 1019,1 hPa 0,0 l/m 1,3 km/h (1 Bft) NO 45 10,2 C 11,8 C 0,0 km/h (0 Bft)
24.08.2013 00:40 12,0 C 88 % 1018,9 hPa 0,0 l/m 0,5 km/h (0 Bft) O-SO 112 10,1 C 11,7 C 2,1 km/h (1 Bft)
24.08.2013 00:45 12,2 C 88 % 1018,9 hPa 0,0 l/m 1,0 km/h (0 Bft) O-SO 112 10,3 C 11,7 C 0,0 km/h (0 Bft)
24.08.2013 00:50 12,1 C 88 % 1018,9 hPa 0,0 l/m 1,0 km/h (0 Bft) O 90 10,2 C 11,5 C 0,0 km/h (0 Bft)
24.08.2013 00:55 11,8 C 88 % 1018,9 hPa 0,0 l/m 0,5 km/h (0 Bft) O-SO 112 9,9 C 11,3 C 0,0 km/h (0 Bft)
24.08.2013 01:00 11,5 C 88 % 1018,9 hPa 0,0 l/m 0,3 km/h (0 Bft) NO 45 9,6 C 11,2 C 0,0 km/h (0 Bft)
24.08.2013 01:05 11,6 C 88 % 1018,9 hPa 0,0 l/m 0,0 km/h (0 Bft) O 90 9,7 C 11,1 C 0,0 km/h (0 Bft)
24.08.2013 01:10 11,5 C 88 % 1018,9 hPa 0,0 l/m 0,0 km/h (0 Bft) NO 45 9,6 C 11,1 C 0,0 km/h (0 Bft)
24.08.2013 01:15 11,5 C 88 % 1018,9 hPa 0,0 l/m 0,0 km/h (0 Bft) O 90 9,6 C 11,0 C 0,0 km/h (0 Bft)
24.08.2013 01:20 11,3 C 89 % 1018,6 hPa 0,0 l/m 0,2 km/h (0 Bft) O-SO 112 9,6 C 11,0 C 2,3 km/h (1 Bft)
24.08.2013 01:25 11,5 C 89 % 1018,6 hPa 0,0 l/m 1,1 km/h (1 Bft) NO 45 9,8 C 11,1 C 0,0 km/h (0 Bft)
24.08.2013 01:30 11,4 C 89 % 1018,6 hPa 0,0 l/m 1,1 km/h (1 Bft) O 90 9,7 C 11,0 C 0,0 km/h (0 Bft)
24.08.2013 01:35 11,0 C 89 % 1018,6 hPa 0,0 l/m 0,0 km/h (0 Bft) O-SO 112 9,3 C 10,7 C 0,0 km/h (0 Bft)
24.08.2013 01:40 11,0 C 89 % 1018,6 hPa 0,0 l/m 0,0 km/h (0 Bft) O 90 9,3 C 10,6 C 0,0 km/h (0 Bft)
24.08.2013 01:45 11,1 C 89 % 1018,6 hPa 0,0 l/m 0,0 km/h (0 Bft) O-SO 112 9,4 C 10,7 C 0,0 km/h (0 Bft)
24.08.2013 01:50 10,7 C 89 % 1018,6 hPa 0,0 l/m 0,0 km/h (0 Bft) N-NO 22 9,0 C 10,5 C 0,0 km/h (0 Bft)
24.08.2013 01:55 10,5 C 89 % 1018,6 hPa 0,0 l/m 0,0 km/h (0 Bft) N-NO 22 8,8 C 10,3 C 0,0 km/h (0 Bft)
24.08.2013 02:00 10,4 C 89 % 1018,6 hPa 0,0 l/m 0,0 km/h (0 Bft) N-NO 22 8,7 C 10,2 C 0,0 km/h (0 Bft)
24.08.2013 02:05 10,4 C 89 % 1018,6 hPa 0,0 l/m 0,0 km/h (0 Bft) N-NO 22 8,7 C 10,0 C 0,0 km/h (0 Bft)
24.08.2013 02:10 10,4 C 89 % 1018,6 hPa 0,0 l/m 0,0 km/h (0 Bft) N-NO 22 8,7 C 10,0 C 0,0 km/h (0 Bft)
24.08.2013 02:15 10,1 C 89 % 1018,6 hPa 0,0 l/m 0,0 km/h (0 Bft) NO 45 8,4 C 10,0 C 0,0 km/h (0 Bft)
24.08.2013 02:20 10,4 C 90 % 1018,8 hPa 0,0 l/m 0,0 km/h (0 Bft) NO 45 8,8 C 9,9 C 0,0 km/h (0 Bft)
24.08.2013 02:25 10,3 C 90 % 1018,8 hPa 0,0 l/m 0,0 km/h (0 Bft) N-NO 22 8,7 C 10,0 C 0,0 km/h (0 Bft)
24.08.2013 02:30 10,6 C 90 % 1018,8 hPa 0,0 l/m 0,0 km/h (0 Bft) O 90 9,0 C 10,1 C 0,0 km/h (0 Bft)
24.08.2013 02:35 10,7 C 91 % 1018,8 hPa 0,0 l/m 0,0 km/h (0 Bft) O-SO 112 9,3 C 10,3 C 0,0 km/h (0 Bft)
24.08.2013 02:40 10,4 C 90 % 1018,2 hPa 0,0 l/m 0,0 km/h (0 Bft) N-NO 22 8,8 C 10,3 C 0,0 km/h (0 Bft)
24.08.2013 02:45 10,3 C 90 % 1018,2 hPa 0,0 l/m 0,0 km/h (0 Bft) N-NO 22 8,7 C 10,1 C 0,0 km/h (0 Bft)
24.08.2013 02:50 10,3 C 90 % 1018,2 hPa 0,0 l/m 0,0 km/h (0 Bft) N 360 8,7 C 10,1 C 0,0 km/h (0 Bft)
24.08.2013 02:55 10,2 C 91 % 1018,2 hPa 0,0 l/m 0,3 km/h (0 Bft) N-NW 337 8,8 C 10,1 C 1,8 km/h (1 Bft)
24.08.2013 03:00 10,3 C 91 % 1018,5 hPa 0,0 l/m 0,6 km/h (0 Bft) O-SO 112 8,9 C 10,2 C 0,0 km/h (0 Bft)
24.08.2013 03:05 10,5 C 92 % 1018,5 hPa 0,0 l/m 0,3 km/h (0 Bft) N 360 9,3 C 10,3 C 0,0 km/h (0 Bft)
24.08.2013 03:10 10,3 C 92 % 1018,5 hPa 0,0 l/m 0,0 km/h (0 Bft) N 360 9,1 C 10,4 C 0,0 km/h (0 Bft)
24.08.2013 03:15 10,3 C 91 % 1018,5 hPa 0,0 l/m 0,0 km/h (0 Bft) N 360 8,9 C 10,2 C 0,0 km/h (0 Bft)
24.08.2013 03:20 10,4 C 91 % 1018,2 hPa 0,0 l/m 0,0 km/h (0 Bft) O-SO 112 9,0 C 10,2 C 0,0 km/h (0 Bft)
24.08.2013 03:25 10,2 C 91 % 1018,2 hPa 0,0 l/m 0,0 km/h (0 Bft) O 90 8,8 C 10,1 C 0,0 km/h (0 Bft)
24.08.2013 03:30 10,1 C 91 % 1018,2 hPa 0,0 l/m 0,0 km/h (0 Bft) N 360 8,7 C 10,0 C 0,0 km/h (0 Bft)
24.08.2013 03:35 10,3 C 91 % 1018,2 hPa 0,0 l/m 0,0 km/h (0 Bft) O-NO 67 8,9 C 9,9 C 0,0 km/h (0 Bft)
24.08.2013 03:40 10,4 C 91 % 1018,1 hPa 0,0 l/m 0,0 km/h (0 Bft) O 90 9,0 C 10,0 C 0,0 km/h (0 Bft)
24.08.2013 03:45 10,1 C 91 % 1018,1 hPa 0,0 l/m 0,0 km/h (0 Bft) N-NW 337 8,7 C 10,0 C 0,0 km/h (0 Bft)
24.08.2013 03:50 9,7 C 91 % 1018,1 hPa 0,0 l/m 0,0 km/h (0 Bft) N-NW 337 8,3 C 9,9 C 0,0 km/h (0 Bft)
24.08.2013 03:55 9,9 C 91 % 1018,1 hPa 0,0 l/m 0,0 km/h (0 Bft) NO 45 8,5 C 9,7 C 0,0 km/h (0 Bft)
24.08.2013 04:00 9,9 C 91 % 1018,0 hPa 0,0 l/m 0,0 km/h (0 Bft) N 360 8,5 C 9,7 C 0,0 km/h (0 Bft)
24.08.2013 04:05 9,6 C 91 % 1018,0 hPa 0,0 l/m 0,0 km/h (0 Bft) NO 45 8,2 C 9,7 C 0,0 km/h (0 Bft)
24.08.2013 04:10 9,9 C 91 % 1018,0 hPa 0,0 l/m 0,0 km/h (0 Bft) N 360 8,5 C 9,7 C 0,0 km/h (0 Bft)
24.08.2013 04:15 10,0 C 92 % 1018,0 hPa 0,0 l/m 0,2 km/h (0 Bft) NO 45 8,8 C 9,8 C 0,0 km/h (0 Bft)
24.08.2013 04:20 10,1 C 92 % 1018,0 hPa 0,0 l/m 0,2 km/h (0 Bft) O-NO 67 8,9 C 9,9 C 0,0 km/h (0 Bft)
24.08.2013 04:25 9,9 C 92 % 1018,0 hPa 0,0 l/m 0,0 km/h (0 Bft) O-NO 67 8,7 C 9,9 C 0,0 km/h (0 Bft)
24.08.2013 04:30 10,0 C 92 % 1018,0 hPa 0,0 l/m 0,0 km/h (0 Bft) NO 45 8,8 C 9,9 C 0,0 km/h (0 Bft)
24.08.2013 04:35 10,0 C 92 % 1018,0 hPa 0,0 l/m 0,0 km/h (0 Bft) N-NW 337 8,8 C 10,0 C 0,0 km/h (0 Bft)
24.08.2013 04:40 10,1 C 92 % 1018,0 hPa 0,0 l/m 0,0 km/h (0 Bft) N 360 8,9 C 10,1 C 0,0 km/h (0 Bft)
24.08.2013 04:45 10,2 C 92 % 1018,0 hPa 0,0 l/m 0,0 km/h (0 Bft) N-NW 337 9,0 C 10,2 C 0,0 km/h (0 Bft)
24.08.2013 04:50 10,3 C 92 % 1018,0 hPa 0,0 l/m 0,0 km/h (0 Bft) NO 45 9,1 C 10,2 C 0,0 km/h (0 Bft)
24.08.2013 04:55 10,2 C 92 % 1018,0 hPa 0,0 l/m 0,0 km/h (0 Bft) S-SO 157 9,0 C 10,2 C 0,0 km/h (0 Bft)
24.08.2013 05:00 10,3 C 92 % 1017,9 hPa 0,0 l/m 0,0 km/h (0 Bft) S-SO 157 9,1 C 10,2 C 0,0 km/h (0 Bft)
24.08.2013 05:05 10,1 C 92 % 1017,9 hPa 0,0 l/m 0,0 km/h (0 Bft) S 180 8,9 C 10,2 C 0,0 km/h (0 Bft)
24.08.2013 05:10 10,0 C 92 % 1017,9 hPa 0,0 l/m 0,0 km/h (0 Bft) S-SO 157 8,8 C 10,1 C 0,0 km/h (0 Bft)
24.08.2013 05:15 10,0 C 92 % 1017,9 hPa 0,0 l/m 0,0 km/h (0 Bft) N-NO 22 8,8 C 10,0 C 0,0 km/h (0 Bft)
24.08.2013 05:20 10,1 C 92 % 1017,6 hPa 0,0 l/m 0,0 km/h (0 Bft) N 360 8,9 C 9,9 C 0,0 km/h (0 Bft)
24.08.2013 05:25 10,0 C 92 % 1017,6 hPa 0,0 l/m 0,0 km/h (0 Bft) N 360 8,8 C 10,0 C 0,0 km/h (0 Bft)
24.08.2013 05:30 10,0 C 92 % 1017,6 hPa 0,0 l/m 0,0 km/h (0 Bft) NO 45 8,8 C 9,9 C 0,0 km/h (0 Bft)
24.08.2013 05:35 10,2 C 92 % 1017,6 hPa 0,0 l/m 0,0 km/h (0 Bft) NO 45 9,0 C 10,0 C 0,0 km/h (0 Bft)
24.08.2013 05:40 10,0 C 92 % 1017,6 hPa 0,0 l/m 0,0 km/h (0 Bft) N 360 8,8 C 10,0 C 0,0 km/h (0 Bft)
24.08.2013 05:45 9,8 C 92 % 1017,6 hPa 0,0 l/m 0,0 km/h (0 Bft) W 270 8,6 C 9,7 C 0,0 km/h (0 Bft)
24.08.2013 05:50 9,8 C 92 % 1017,6 hPa 0,0 l/m 0,0 km/h (0 Bft) N 360 8,6 C 9,7 C 0,0 km/h (0 Bft)
24.08.2013 05:55 9,8 C 92 % 1017,6 hPa 0,0 l/m 0,2 km/h (0 Bft) N 360 8,6 C 9,6 C 0,0 km/h (0 Bft)
24.08.2013 06:00 9,6 C 92 % 1017,4 hPa 0,0 l/m 0,2 km/h (0 Bft) N-NW 337 8,4 C 9,5 C 0,0 km/h (0 Bft)
24.08.2013 06:05 9,5 C 92 % 1017,4 hPa 0,0 l/m 0,0 km/h (0 Bft) N 360 8,3 C 9,4 C 0,0 km/h (0 Bft)
24.08.2013 06:10 9,5 C 92 % 1017,4 hPa 0,0 l/m 0,0 km/h (0 Bft) N 360 8,3 C 9,4 C 0,0 km/h (0 Bft)
24.08.2013 06:15 9,3 C 92 % 1017,4 hPa 0,0 l/m 0,0 km/h (0 Bft) N 360 8,1 C 9,3 C 0,0 km/h (0 Bft)
24.08.2013 06:20 9,3 C 92 % 1017,4 hPa 0,0 l/m 0,0 km/h (0 Bft) N 360 8,1 C 9,3 C 0,0 km/h (0 Bft)
24.08.2013 06:25 9,4 C 92 % 1017,4 hPa 0,0 l/m 0,0 km/h (0 Bft) N 360 8,2 C 9,3 C 0,0 km/h (0 Bft)
24.08.2013 06:30 9,4 C 92 % 1017,4 hPa 0,0 l/m 0,0 km/h (0 Bft) N 360 8,2 C 9,2 C 0,0 km/h (0 Bft)
24.08.2013 06:35 9,5 C 92 % 1017,4 hPa 0,0 l/m 0,0 km/h (0 Bft) N-NW 337 8,3 C 9,2 C 0,0 km/h (0 Bft)
24.08.2013 06:40 9,5 C 92 % 1017,3 hPa 0,0 l/m 0,0 km/h (0 Bft) N 360 8,3 C 9,3 C 0,0 km/h (0 Bft)
24.08.2013 06:45 9,5 C 92 % 1017,3 hPa 0,0 l/m 0,0 km/h (0 Bft) N-NO 22 8,3 C 9,4 C 0,0 km/h (0 Bft)
24.08.2013 06:50 9,6 C 92 % 1017,3 hPa 0,0 l/m 0,0 km/h (0 Bft) N-NO 22 8,4 C 9,5 C 0,0 km/h (0 Bft)
24.08.2013 06:55 9,8 C 92 % 1017,3 hPa 0,0 l/m 0,0 km/h (0 Bft) N-NW 337 8,6 C 9,7 C 0,0 km/h (0 Bft)
24.08.2013 07:00 10,0 C 92 % 1017,3 hPa 0,0 l/m 0,0 km/h (0 Bft) N-NO 22 8,8 C 9,7 C 0,0 km/h (0 Bft)
24.08.2013 07:05 10,3 C 92 % 1017,3 hPa 0,0 l/m 0,2 km/h (0 Bft) NO 45 9,1 C 10,0 C 0,0 km/h (0 Bft)
24.08.2013 07:10 10,6 C 93 % 1017,3 hPa 0,0 l/m 0,2 km/h (0 Bft) O-NO 67 9,5 C 10,4 C 0,0 km/h (0 Bft)
24.08.2013 07:15 10,7 C 93 % 1017,3 hPa 0,0 l/m 0,0 km/h (0 Bft) O-NO 67 9,6 C 11,4 C 0,0 km/h (0 Bft)
24.08.2013 07:20 10,8 C 93 % 1017,4 hPa 0,0 l/m 0,0 km/h (0 Bft) N-NO 22 9,7 C 11,9 C 0,0 km/h (0 Bft)
24.08.2013 07:25 11,0 C 92 % 1017,4 hPa 0,0 l/m 0,0 km/h (0 Bft) NO 45 9,8 C 12,6 C 0,0 km/h (0 Bft)
24.08.2013 07:30 11,0 C 92 % 1017,4 hPa 0,0 l/m 0,0 km/h (0 Bft) W-NW 292 9,8 C 13,1 C 0,0 km/h (0 Bft)
24.08.2013 07:35 11,1 C 92 % 1017,4 hPa 0,0 l/m 0,0 km/h (0 Bft) N 360 9,8 C 13,6 C 0,0 km/h (0 Bft)
24.08.2013 07:40 11,2 C 92 % 1017,3 hPa 0,0 l/m 0,0 km/h (0 Bft) N-NO 22 9,9 C 14,0 C 0,0 km/h (0 Bft)
24.08.2013 07:45 11,4 C 93 % 1017,3 hPa 0,0 l/m 0,0 km/h (0 Bft) NO 45 10,3 C 14,5 C 0,0 km/h (0 Bft)
24.08.2013 07:50 13,2 C 91 % 1017,3 hPa 0,0 l/m 0,0 km/h (0 Bft) N-NO 22 11,8 C 15,1 C 0,0 km/h (0 Bft)
24.08.2013 07:55 14,8 C 89 % 1017,3 hPa 0,0 l/m 0,0 km/h (0 Bft) NO 45 13,0 C 15,9 C 0,0 km/h (0 Bft)
24.08.2013 08:00 15,0 C 88 % 1017,2 hPa 0,0 l/m 0,0 km/h (0 Bft) N-NO 22 13,0 C 16,6 C 0,0 km/h (0 Bft)
24.08.2013 08:05 16,5 C 86 % 1017,2 hPa 0,0 l/m 0,0 km/h (0 Bft) O-NO 67 14,1 C 16,8 C 0,0 km/h (0 Bft)
24.08.2013 08:10 17,7 C 85 % 1017,2 hPa 0,0 l/m 0,0 km/h (0 Bft) SW 225 15,1 C 17,5 C 0,0 km/h (0 Bft)
24.08.2013 08:15 18,1 C 80 % 1017,2 hPa 0,0 l/m 0,0 km/h (0 Bft) NO 45 14,6 C 18,4 C 0,0 km/h (0 Bft)
24.08.2013 08:20 18,9 C 80 % 1017,2 hPa 0,0 l/m 0,0 km/h (0 Bft) NO 45 15,4 C 19,0 C 1,6 km/h (1 Bft)
24.08.2013 08:25 20,0 C 75 % 1017,2 hPa 0,0 l/m 0,2 km/h (0 Bft) O-SO 112 15,4 C 19,8 C 0,0 km/h (0 Bft)
24.08.2013 08:30 20,3 C 72 % 1017,2 hPa 0,0 l/m 0,2 km/h (0 Bft) N-NO 22 15,1 C 20,5 C 1,8 km/h (1 Bft)
24.08.2013 08:35 21,3 C 69 % 1017,2 hPa 0,0 l/m 0,2 km/h (0 Bft) W-SW 247 15,4 C 21,0 C 1,8 km/h (1 Bft)
24.08.2013 08:40 21,7 C 67 % 1017,0 hPa 0,0 l/m 0,3 km/h (0 Bft) NO 45 15,3 C 21,2 C 0,0 km/h (0 Bft)
24.08.2013 08:45 21,9 C 64 % 1017,0 hPa 0,0 l/m 0,2 km/h (0 Bft) N-NO 22 14,8 C 22,2 C 0,0 km/h (0 Bft)
24.08.2013 08:50 22,0 C 63 % 1017,0 hPa 0,0 l/m 0,2 km/h (0 Bft) O-NO 67 14,6 C 22,4 C 1,8 km/h (1 Bft)
24.08.2013 08:55 22,6 C 61 % 1017,0 hPa 0,0 l/m 0,2 km/h (0 Bft) O 90 14,7 C 23,3 C 0,0 km/h (0 Bft)
24.08.2013 09:00 22,4 C 59 % 1016,9 hPa 0,0 l/m 0,2 km/h (0 Bft) O 90 14,0 C 24,0 C 0,0 km/h (0 Bft)
24.08.2013 09:05 22,6 C 58 % 1016,9 hPa 0,0 l/m 0,0 km/h (0 Bft) O 90 13,9 C 24,7 C 0,0 km/h (0 Bft)
24.08.2013 09:10 23,0 C 57 % 1016,9 hPa 0,0 l/m 0,0 km/h (0 Bft) N 360 14,0 C 25,1 C 0,0 km/h (0 Bft)
24.08.2013 09:15 22,9 C 57 % 1016,9 hPa 0,0 l/m 0,0 km/h (0 Bft) N 360 13,9 C 25,5 C 0,0 km/h (0 Bft)
24.08.2013 09:20 23,8 C 57 % 1017,1 hPa 0,0 l/m 0,0 km/h (0 Bft) NO 45 14,8 C 25,5 C 0,0 km/h (0 Bft)
24.08.2013 09:25 24,2 C 53 % 1017,1 hPa 0,0 l/m 0,0 km/h (0 Bft) N 360 14,0 C 25,8 C 1,6 km/h (1 Bft)
24.08.2013 09:30 24,0 C 52 % 1017,1 hPa 0,0 l/m 0,0 km/h (0 Bft) NO 45 13,5 C 26,0 C 0,0 km/h (0 Bft)
24.08.2013 09:35 24,5 C 55 % 1017,1 hPa 0,0 l/m 0,5 km/h (0 Bft) W 270 14,9 C 26,6 C 2,9 km/h (1 Bft)
24.08.2013 09:40 24,8 C 50 % 1017,0 hPa 0,0 l/m 1,3 km/h (1 Bft) N-NW 337 13,7 C 25,9 C 2,4 km/h (1 Bft)
24.08.2013 09:45 24,9 C 51 % 1017,0 hPa 0,0 l/m 1,6 km/h (1 Bft) N-NW 337 14,1 C 25,9 C 4,5 km/h (1 Bft)
24.08.2013 09:50 24,8 C 48 % 1017,0 hPa 0,0 l/m 1,1 km/h (1 Bft) NW 315 13,0 C 26,1 C 3,4 km/h (1 Bft)
24.08.2013 09:55 24,7 C 49 % 1017,0 hPa 0,0 l/m 2,3 km/h (1 Bft) W-NW 292 13,3 C 25,9 C 3,5 km/h (1 Bft)
24.08.2013 10:00 24,3 C 52 % 1017,2 hPa 0,0 l/m 2,4 km/h (1 Bft) N 360 13,8 C 25,3 C 0,0 km/h (0 Bft)
24.08.2013 10:05 24,2 C 49 % 1017,2 hPa 0,0 l/m 1,8 km/h (1 Bft) N-NO 22 12,8 C 25,5 C 4,8 km/h (1 Bft)
24.08.2013 10:10 23,9 C 50 % 1017,2 hPa 0,0 l/m 1,4 km/h (1 Bft) W 270 12,8 C 25,8 C 4,8 km/h (1 Bft)
24.08.2013 10:15 23,8 C 49 % 1017,2 hPa 0,0 l/m 2,1 km/h (1 Bft) W-NW 292 12,4 C 25,3 C 3,9 km/h (1 Bft)
24.08.2013 10:20 24,1 C 50 % 1017,5 hPa 0,0 l/m 2,7 km/h (1 Bft) S-SO 157 13,0 C 25,1 C 1,6 km/h (1 Bft)
24.08.2013 10:25 24,4 C 48 % 1017,5 hPa 0,0 l/m 2,1 km/h (1 Bft) W-NW 292 12,7 C 25,5 C 1,6 km/h (1 Bft)
24.08.2013 10:30 23,9 C 48 % 1017,5 hPa 0,0 l/m 1,6 km/h (1 Bft) W-NW 292 12,2 C 25,6 C 3,7 km/h (1 Bft)
24.08.2013 10:35 23,1 C 50 % 1017,5 hPa 0,0 l/m 1,6 km/h (1 Bft) W-NW 292 12,1 C 25,2 C 1,8 km/h (1 Bft)
24.08.2013 10:40 23,5 C 50 % 1017,5 hPa 0,0 l/m 1,4 km/h (1 Bft) W-NW 292 12,5 C 24,6 C 2,3 km/h (1 Bft)
24.08.2013 10:45 24,3 C 48 % 1017,5 hPa 0,0 l/m 1,4 km/h (1 Bft) O 90 12,6 C 25,2 C 0,0 km/h (0 Bft)
24.08.2013 10:50 24,6 C 47 % 1017,5 hPa 0,0 l/m 1,3 km/h (1 Bft) O-SO 112 12,5 C 26,0 C 0,0 km/h (0 Bft)
24.08.2013 10:55 24,3 C 47 % 1017,5 hPa 0,0 l/m 1,6 km/h (1 Bft) N 360 12,3 C 26,4 C 3,2 km/h (1 Bft)
24.08.2013 11:00 24,6 C 49 % 1017,9 hPa 0,0 l/m 1,8 km/h (1 Bft) O 90 13,2 C 26,5 C 1,6 km/h (1 Bft)
24.08.2013 11:05 24,3 C 46 % 1017,9 hPa 0,0 l/m 1,6 km/h (1 Bft) N-NO 22 11,9 C 26,5 C 5,3 km/h (1 Bft)
24.08.2013 11:10 24,7 C 47 % 1017,9 hPa 0,0 l/m 1,3 km/h (1 Bft) NO 45 12,6 C 26,8 C 1,8 km/h (1 Bft)
24.08.2013 11:15 24,7 C 47 % 1017,9 hPa 0,0 l/m 1,1 km/h (1 Bft) N 360 12,6 C 26,8 C 0,0 km/h (0 Bft)
24.08.2013 11:20 25,7 C 47 % 1017,9 hPa 0,0 l/m 1,9 km/h (1 Bft) S 180 13,5 C 26,5 C 1,9 km/h (1 Bft)
24.08.2013 11:25 26,6 C 40 % 1017,9 hPa 0,0 l/m 1,3 km/h (1 Bft) O-NO 67 11,9 C 27,0 C 4,2 km/h (1 Bft)
24.08.2013 11:30 25,7 C 44 % 1017,9 hPa 0,0 l/m 1,6 km/h (1 Bft) O-NO 67 12,5 C 26,9 C 4,5 km/h (1 Bft)
24.08.2013 11:35 24,8 C 48 % 1017,9 hPa 0,0 l/m 2,1 km/h (1 Bft) S 180 13,0 C 26,5 C 6,3 km/h (2 Bft)
24.08.2013 11:40 25,9 C 48 % 1017,9 hPa 0,0 l/m 1,3 km/h (1 Bft) W-NW 292 14,0 C 26,7 C 0,0 km/h (0 Bft)
24.08.2013 11:45 24,2 C 47 % 1017,9 hPa 0,0 l/m 1,6 km/h (1 Bft) O 90 12,2 C 26,7 C 7,2 km/h (2 Bft)
24.08.2013 11:50 24,2 C 50 % 1017,9 hPa 0,0 l/m 1,6 km/h (1 Bft) NO 45 13,1 C 26,7 C 0,0 km/h (0 Bft)
24.08.2013 11:55 24,5 C 50 % 1017,9 hPa 0,0 l/m 1,0 km/h (0 Bft) N 360 13,4 C 26,7 C 3,9 km/h (1 Bft)
24.08.2013 12:00 24,7 C 50 % 1017,6 hPa 0,0 l/m 1,8 km/h (1 Bft) N 360 13,6 C 26,7 C 4,8 km/h (1 Bft)
24.08.2013 12:05 25,5 C 47 % 1017,6 hPa 0,0 l/m 3,7 km/h (1 Bft) N 360 13,3 C 26,9 C 8,4 km/h (2 Bft)
24.08.2013 12:10 24,4 C 49 % 1017,6 hPa 0,0 l/m 3,7 km/h (1 Bft) NW 315 13,0 C 26,9 C 2,4 km/h (1 Bft)
24.08.2013 12:15 24,9 C 50 % 1017,6 hPa 0,0 l/m 2,7 km/h (1 Bft) W-NW 292 13,7 C 26,9 C 5,1 km/h (1 Bft)
24.08.2013 12:20 25,2 C 48 % 1017,4 hPa 0,0 l/m 2,9 km/h (1 Bft) N-NO 22 13,4 C 27,0 C 1,9 km/h (1 Bft)
24.08.2013 12:25 25,6 C 48 % 1017,4 hPa 0,0 l/m 3,7 km/h (1 Bft) W-NW 292 13,8 C 27,2 C 4,8 km/h (1 Bft)
24.08.2013 12:30 25,2 C 47 % 1017,4 hPa 0,0 l/m 3,2 km/h (1 Bft) N-NW 337 13,1 C 27,0 C 2,6 km/h (1 Bft)
24.08.2013 12:35 25,1 C 49 % 1017,4 hPa 0,0 l/m 3,2 km/h (1 Bft) W-NW 292 13,6 C 27,3 C 7,2 km/h (2 Bft)
24.08.2013 12:40 24,7 C 49 % 1017,4 hPa 0,0 l/m 3,7 km/h (1 Bft) N-NO 22 13,3 C 27,0 C 7,1 km/h (2 Bft)
24.08.2013 12:45 25,3 C 48 % 1017,4 hPa 0,0 l/m 4,2 km/h (1 Bft) W-NW 292 13,5 C 26,7 C 4,5 km/h (1 Bft)
24.08.2013 12:50 24,9 C 49 % 1017,4 hPa 0,0 l/m 4,0 km/h (1 Bft) W-NW 292 13,4 C 27,0 C 6,4 km/h (2 Bft)
24.08.2013 12:55 23,6 C 50 % 1017,4 hPa 0,0 l/m 3,7 km/h (1 Bft) N 360 12,6 C 26,7 C 6,1 km/h (2 Bft)
24.08.2013 13:00 23,7 C 51 % 1017,2 hPa 0,0 l/m 4,3 km/h (1 Bft) N-NW 337 13,0 C 26,2 C 8,0 km/h (2 Bft)
24.08.2013 13:05 24,1 C 51 % 1017,2 hPa 0,0 l/m 4,5 km/h (1 Bft) S-SO 157 13,3 C 25,8 C 7,1 km/h (2 Bft)
24.08.2013 13:10 24,7 C 53 % 1017,2 hPa 0,0 l/m 4,2 km/h (1 Bft) NW 315 14,5 C 26,3 C 5,0 km/h (1 Bft)
24.08.2013 13:15 25,0 C 47 % 1017,2 hPa 0,0 l/m 4,7 km/h (1 Bft) N 360 12,9 C 26,9 C 9,5 km/h (2 Bft)
24.08.2013 13:20 24,5 C 49 % 1017,2 hPa 0,0 l/m 4,5 km/h (1 Bft) W 270 13,1 C 27,1 C 8,7 km/h (2 Bft)
24.08.2013 13:25 24,6 C 48 % 1017,2 hPa 0,0 l/m 4,0 km/h (1 Bft) N-NW 337 12,8 C 26,9 C 10,3 km/h (2 Bft)
24.08.2013 13:30 25,0 C 47 % 1017,2 hPa 0,0 l/m 4,3 km/h (1 Bft) NW 315 12,9 C 27,3 C 3,9 km/h (1 Bft)
24.08.2013 13:35 25,2 C 48 % 1017,2 hPa 0,0 l/m 4,8 km/h (1 Bft) N 360 13,4 C 27,5 C 7,2 km/h (2 Bft)
24.08.2013 13:40 25,8 C 48 % 1017,1 hPa 0,0 l/m 5,1 km/h (1 Bft) W-NW 292 13,9 C 27,5 C 5,8 km/h (2 Bft)
24.08.2013 13:45 25,1 C 47 % 1017,1 hPa 0,0 l/m 5,8 km/h (2 Bft) N 360 13,0 C 27,3 C 13,8 km/h (3 Bft)
24.08.2013 13:50 24,3 C 49 % 1017,1 hPa 0,0 l/m 5,8 km/h (2 Bft) N-NW 337 12,9 C 27,0 C 5,3 km/h (1 Bft)
24.08.2013 13:55 23,3 C 52 % 1017,1 hPa 0,0 l/m 4,7 km/h (1 Bft) N-NO 22 12,9 C 25,8 C 3,9 km/h (1 Bft)
24.08.2013 14:00 23,7 C 52 % 1017,0 hPa 0,0 l/m 3,4 km/h (1 Bft) N 360 13,2 C 25,4 C 1,9 km/h (1 Bft)
24.08.2013 14:05 24,7 C 51 % 1017,0 hPa 0,0 l/m 2,9 km/h (1 Bft) N 360 13,9 C 26,3 C 3,7 km/h (1 Bft)
24.08.2013 14:10 23,7 C 52 % 1017,0 hPa 0,0 l/m 3,7 km/h (1 Bft) W-SW 247 13,2 C 26,7 C 5,5 km/h (1 Bft)
24.08.2013 14:15 23,8 C 53 % 1017,0 hPa 0,0 l/m 3,9 km/h (1 Bft) N-NW 337 13,6 C 25,7 C 2,4 km/h (1 Bft)
24.08.2013 14:20 24,8 C 49 % 1016,7 hPa 0,0 l/m 3,1 km/h (1 Bft) N-NO 22 13,3 C 26,5 C 4,0 km/h (1 Bft)
24.08.2013 14:25 24,7 C 49 % 1016,7 hPa 0,0 l/m 3,1 km/h (1 Bft) O-NO 67 13,3 C 27,5 C 3,1 km/h (1 Bft)
24.08.2013 14:30 25,0 C 51 % 1016,7 hPa 0,0 l/m 3,9 km/h (1 Bft) W-NW 292 14,1 C 27,6 C 7,6 km/h (2 Bft)
24.08.2013 14:35 24,1 C 52 % 1016,7 hPa 0,0 l/m 4,3 km/h (1 Bft) W-NW 292 13,6 C 27,0 C 6,8 km/h (2 Bft)
24.08.2013 14:40 23,3 C 55 % 1016,4 hPa 0,0 l/m 4,7 km/h (1 Bft) NO 45 13,7 C 26,1 C 4,0 km/h (1 Bft)
24.08.2013 14:45 22,8 C 57 % 1016,4 hPa 0,0 l/m 4,0 km/h (1 Bft) N 360 13,8 C 25,3 C 3,1 km/h (1 Bft)
24.08.2013 14:50 23,4 C 56 % 1016,4 hPa 0,0 l/m 3,9 km/h (1 Bft) W-NW 292 14,1 C 25,0 C 4,8 km/h (1 Bft)
24.08.2013 14:55 25,2 C 51 % 1016,4 hPa 0,0 l/m 3,9 km/h (1 Bft) N-NO 22 14,3 C 26,5 C 7,2 km/h (2 Bft)
24.08.2013 15:00 26,0 C 50 % 1016,4 hPa 0,0 l/m 3,9 km/h (1 Bft) N-NW 337 14,8 C 27,7 C 6,1 km/h (2 Bft)
24.08.2013 15:05 25,5 C 48 % 1016,4 hPa 0,0 l/m 3,4 km/h (1 Bft) S-SO 157 13,7 C 29,0 C 2,7 km/h (1 Bft)
24.08.2013 15:10 26,3 C 48 % 1016,4 hPa 0,0 l/m 3,1 km/h (1 Bft) N-NO 22 14,4 C 29,5 C 2,1 km/h (1 Bft)
24.08.2013 15:15 25,9 C 49 % 1016,4 hPa 0,0 l/m 3,1 km/h (1 Bft) O 90 14,4 C 30,3 C 2,1 km/h (1 Bft)
24.08.2013 15:20 25,2 C 49 % 1016,3 hPa 0,0 l/m 3,4 km/h (1 Bft) N-NW 337 13,7 C 30,3 C 5,5 km/h (1 Bft)
24.08.2013 15:25 24,5 C 51 % 1016,3 hPa 0,0 l/m 2,9 km/h (1 Bft) N-NW 337 13,7 C 28,9 C 3,9 km/h (1 Bft)
24.08.2013 15:30 24,2 C 53 % 1016,3 hPa 0,0 l/m 3,4 km/h (1 Bft) N-NW 337 14,0 C 28,0 C 6,4 km/h (2 Bft)
24.08.2013 15:35 23,5 C 54 % 1016,3 hPa 0,0 l/m 3,7 km/h (1 Bft) W-NW 292 13,6 C 26,7 C 4,8 km/h (1 Bft)
24.08.2013 15:40 23,5 C 54 % 1016,1 hPa 0,0 l/m 3,7 km/h (1 Bft) NW 315 13,6 C 25,9 C 3,4 km/h (1 Bft)
24.08.2013 15:45 23,6 C 54 % 1016,1 hPa 0,0 l/m 4,0 km/h (1 Bft) N 360 13,7 C 25,4 C 3,9 km/h (1 Bft)
24.08.2013 15:50 24,0 C 54 % 1016,1 hPa 0,0 l/m 3,1 km/h (1 Bft) NW 315 14,1 C 25,9 C 6,8 km/h (2 Bft)
24.08.2013 15:55 24,5 C 54 % 1016,1 hPa 0,0 l/m 2,6 km/h (1 Bft) W-SW 247 14,6 C 26,6 C 3,2 km/h (1 Bft)
24.08.2013 16:00 24,9 C 50 % 1015,8 hPa 0,0 l/m 2,7 km/h (1 Bft) W-NW 292 13,7 C 27,7 C 4,3 km/h (1 Bft)
24.08.2013 16:05 23,6 C 50 % 1015,8 hPa 0,0 l/m 2,9 km/h (1 Bft) N-NO 22 12,6 C 27,7 C 4,0 km/h (1 Bft)
24.08.2013 16:10 22,8 C 56 % 1015,8 hPa 0,0 l/m 3,4 km/h (1 Bft) N-NW 337 13,6 C 26,5 C 10,6 km/h (2 Bft)
24.08.2013 16:15 22,1 C 57 % 1015,8 hPa 0,0 l/m 3,4 km/h (1 Bft) O-SO 112 13,2 C 24,9 C 2,6 km/h (1 Bft)
24.08.2013 16:20 21,9 C 58 % 1014,9 hPa 0,0 l/m 2,7 km/h (1 Bft) NO 45 13,3 C 24,2 C 3,4 km/h (1 Bft)
24.08.2013 16:25 21,7 C 58 % 1014,9 hPa 0,0 l/m 1,8 km/h (1 Bft) NO 45 13,1 C 23,7 C 0,0 km/h (0 Bft)
24.08.2013 16:30 21,6 C 58 % 1014,9 hPa 0,0 l/m 1,3 km/h (1 Bft) O 90 13,0 C 23,5 C 2,1 km/h (1 Bft)
24.08.2013 16:35 21,2 C 59 % 1014,9 hPa 0,0 l/m 1,6 km/h (1 Bft) O-SO 112 12,9 C 22,9 C 3,5 km/h (1 Bft)
24.08.2013 16:40 21,1 C 59 % 1015,2 hPa 0,0 l/m 2,4 km/h (1 Bft) O-NO 67 12,8 C 22,5 C 4,0 km/h (1 Bft)
24.08.2013 16:45 20,3 C 64 % 1015,2 hPa 0,0 l/m 3,2 km/h (1 Bft) O 90 13,3 C 21,8 C 4,0 km/h (1 Bft)
24.08.2013 16:50 19,9 C 66 % 1015,2 hPa 0,0 l/m 3,4 km/h (1 Bft) O 90 13,4 C 21,1 C 3,4 km/h (1 Bft)
24.08.2013 16:55 19,3 C 65 % 1015,2 hPa 0,0 l/m 4,5 km/h (1 Bft) S 180 12,6 C 19,9 C 20,8 km/h (4 Bft)
24.08.2013 17:00 17,6 C 67 % 1015,8 hPa 0,0 l/m 7,2 km/h (2 Bft) S-SO 157 11,4 C 17,6 C 20,0 km/h (4 Bft)
24.08.2013 17:05 15,0 C 82 % 1015,8 hPa 0,0 l/m 9,8 km/h (2 Bft) S 180 12,0 C 13,3 C 20,9 km/h (4 Bft)
24.08.2013 17:10 14,6 C 85 % 1015,8 hPa 0,0 l/m 8,7 km/h (2 Bft) SO 135 12,1 C 13,1 C 9,8 km/h (2 Bft)
24.08.2013 17:15 14,4 C 87 % 1015,8 hPa 0,7 l/m 8,0 km/h (2 Bft) S 180 12,3 C 12,9 C 11,6 km/h (2 Bft)
24.08.2013 17:20 14,1 C 88 % 1017,2 hPa 0,7 l/m 10,3 km/h (2 Bft) S 180 12,1 C 11,1 C 18,0 km/h (3 Bft)
24.08.2013 17:25 13,9 C 89 % 1017,2 hPa 0,7 l/m 10,9 km/h (2 Bft) O-SO 112 12,1 C 10,5 C 30,9 km/h (5 Bft)
24.08.2013 17:30 13,9 C 90 % 1017,2 hPa 1,4 l/m 10,5 km/h (2 Bft) S-SO 157 12,3 C 10,7 C 13,5 km/h (3 Bft)
24.08.2013 17:35 13,9 C 91 % 1017,2 hPa 0,7 l/m 8,7 km/h (2 Bft) S 180 12,5 C 11,9 C 10,0 km/h (2 Bft)
24.08.2013 17:40 13,9 C 91 % 1016,8 hPa 0,0 l/m 6,6 km/h (2 Bft) S 180 12,5 C 13,5 C 4,7 km/h (1 Bft)
24.08.2013 17:45 13,9 C 91 % 1016,8 hPa 0,0 l/m 4,8 km/h (1 Bft) S-SO 157 12,5 C 13,8 C 4,8 km/h (1 Bft)
24.08.2013 17:50 14,1 C 92 % 1016,8 hPa 0,0 l/m 4,8 km/h (1 Bft) O-SO 112 12,8 C 13,9 C 7,6 km/h (2 Bft)
24.08.2013 17:55 14,1 C 92 % 1016,8 hPa 0,7 l/m 6,4 km/h (2 Bft) SW 225 12,8 C 13,9 C 5,0 km/h (1 Bft)
24.08.2013 18:00 14,1 C 92 % 1016,8 hPa 0,0 l/m 6,6 km/h (2 Bft) S 180 12,8 C 14,0 C 7,1 km/h (2 Bft)
24.08.2013 18:05 14,1 C 92 % 1016,8 hPa 0,0 l/m 6,1 km/h (2 Bft) S 180 12,8 C 14,1 C 8,9 km/h (2 Bft)
24.08.2013 18:10 14,1 C 93 % 1016,8 hPa 0,7 l/m 6,9 km/h (2 Bft) W-SW 247 13,0 C 13,7 C 8,4 km/h (2 Bft)
24.08.2013 18:15 14,2 C 93 % 1016,8 hPa 0,0 l/m 7,7 km/h (2 Bft) SO 135 13,1 C 13,2 C 10,3 km/h (2 Bft)
24.08.2013 18:20 14,3 C 93 % 1016,7 hPa 0,0 l/m 6,8 km/h (2 Bft) SW 225 13,2 C 14,0 C 3,2 km/h (1 Bft)
24.08.2013 18:25 14,3 C 93 % 1016,7 hPa 0,0 l/m 5,1 km/h (1 Bft) S 180 13,2 C 14,3 C 7,7 km/h (2 Bft)
24.08.2013 18:30 14,3 C 93 % 1016,7 hPa 0,0 l/m 4,3 km/h (1 Bft) S 180 13,2 C 14,4 C 6,1 km/h (2 Bft)
24.08.2013 18:35 14,4 C 93 % 1016,7 hPa 0,0 l/m 3,7 km/h (1 Bft) O 90 13,3 C 14,4 C 5,0 km/h (1 Bft)
24.08.2013 18:40 14,3 C 93 % 1016,6 hPa 0,0 l/m 3,5 km/h (1 Bft) O-SO 112 13,2 C 14,4 C 4,5 km/h (1 Bft)
24.08.2013 18:45 14,3 C 93 % 1016,6 hPa 0,0 l/m 3,2 km/h (1 Bft) S-SO 157 13,2 C 14,4 C 6,1 km/h (2 Bft)
24.08.2013 18:50 14,3 C 93 % 1016,6 hPa 0,0 l/m 2,9 km/h (1 Bft) S 180 13,2 C 14,3 C 4,2 km/h (1 Bft)
24.08.2013 18:55 14,3 C 93 % 1016,6 hPa 0,0 l/m 3,7 km/h (1 Bft) O-SO 112 13,2 C 14,3 C 3,7 km/h (1 Bft)
24.08.2013 19:00 14,3 C 93 % 1016,5 hPa 0,0 l/m 3,4 km/h (1 Bft) SW 225 13,2 C 14,3 C 3,4 km/h (1 Bft)
24.08.2013 19:05 14,2 C 93 % 1016,5 hPa 0,0 l/m 2,1 km/h (1 Bft) SW 225 13,1 C 14,3 C 2,6 km/h (1 Bft)
24.08.2013 19:10 14,2 C 93 % 1016,5 hPa 0,0 l/m 1,3 km/h (1 Bft) W-NW 292 13,1 C 14,3 C 0,0 km/h (0 Bft)
24.08.2013 19:15 14,1 C 93 % 1016,5 hPa 0,0 l/m 0,5 km/h (0 Bft) N 360 13,0 C 14,2 C 0,0 km/h (0 Bft)
24.08.2013 19:20 14,1 C 93 % 1016,5 hPa 0,0 l/m 0,0 km/h (0 Bft) O-NO 67 13,0 C 14,2 C 0,0 km/h (0 Bft)
24.08.2013 19:25 14,0 C 93 % 1016,5 hPa 0,0 l/m 0,2 km/h (0 Bft) O 90 12,9 C 14,1 C 0,0 km/h (0 Bft)
24.08.2013 19:30 14,0 C 93 % 1016,5 hPa 0,0 l/m 0,2 km/h (0 Bft) O 90 12,9 C 14,1 C 0,0 km/h (0 Bft)
24.08.2013 19:35 13,9 C 94 % 1016,5 hPa 0,0 l/m 0,0 km/h (0 Bft) NO 45 12,9 C 14,0 C 0,0 km/h (0 Bft)
24.08.2013 19:40 13,9 C 94 % 1016,5 hPa 0,0 l/m 0,0 km/h (0 Bft) O 90 12,9 C 14,0 C 0,0 km/h (0 Bft)
24.08.2013 19:45 13,9 C 94 % 1016,5 hPa 0,0 l/m 0,2 km/h (0 Bft) O 90 12,9 C 14,0 C 0,0 km/h (0 Bft)
24.08.2013 19:50 13,9 C 94 % 1016,5 hPa 0,0 l/m 0,2 km/h (0 Bft) O 90 12,9 C 14,0 C 0,0 km/h (0 Bft)
24.08.2013 19:55 14,0 C 94 % 1016,5 hPa 0,0 l/m 0,0 km/h (0 Bft) NO 45 13,0 C 14,0 C 0,0 km/h (0 Bft)
24.08.2013 20:00 14,0 C 94 % 1017,0 hPa 0,0 l/m 0,0 km/h (0 Bft) O 90 13,0 C 14,0 C 0,0 km/h (0 Bft)
24.08.2013 20:05 14,0 C 94 % 1017,0 hPa 0,0 l/m 0,3 km/h (0 Bft) SO 135 13,0 C 14,0 C 0,0 km/h (0 Bft)
24.08.2013 20:10 14,0 C 94 % 1017,0 hPa 0,0 l/m 1,1 km/h (1 Bft) NO 45 13,0 C 14,0 C 3,2 km/h (1 Bft)
24.08.2013 20:15 14,0 C 94 % 1017,0 hPa 0,0 l/m 1,0 km/h (0 Bft) N-NO 22 13,0 C 14,0 C 0,0 km/h (0 Bft)
24.08.2013 20:20 14,0 C 94 % 1016,4 hPa 0,0 l/m 0,5 km/h (0 Bft) NO 45 13,0 C 13,9 C 0,0 km/h (0 Bft)
24.08.2013 20:25 13,9 C 94 % 1016,4 hPa 0,0 l/m 0,0 km/h (0 Bft) NO 45 12,9 C 13,8 C 0,0 km/h (0 Bft)
24.08.2013 20:30 13,8 C 94 % 1016,4 hPa 0,0 l/m 0,0 km/h (0 Bft) O 90 12,9 C 13,8 C 0,0 km/h (0 Bft)
24.08.2013 20:35 13,8 C 94 % 1016,4 hPa 0,0 l/m 0,0 km/h (0 Bft) O-NO 67 12,9 C 13,8 C 0,0 km/h (0 Bft)
24.08.2013 20:40 13,8 C 94 % 1016,2 hPa 0,0 l/m 0,0 km/h (0 Bft) O-NO 67 12,9 C 13,8 C 0,0 km/h (0 Bft)
24.08.2013 20:45 13,7 C 94 % 1016,2 hPa 0,0 l/m 0,0 km/h (0 Bft) NO 45 12,8 C 13,7 C 0,0 km/h (0 Bft)
24.08.2013 20:50 13,7 C 94 % 1016,2 hPa 0,0 l/m 0,0 km/h (0 Bft) NO 45 12,8 C 13,6 C 0,0 km/h (0 Bft)
24.08.2013 20:55 13,6 C 94 % 1016,2 hPa 0,0 l/m 0,0 km/h (0 Bft) O 90 12,7 C 13,6 C 0,0 km/h (0 Bft)
24.08.2013 21:00 13,6 C 94 % 1016,3 hPa 0,0 l/m 0,0 km/h (0 Bft) O-SO 112 12,7 C 13,6 C 0,0 km/h (0 Bft)
24.08.2013 21:05 13,6 C 94 % 1016,3 hPa 0,0 l/m 0,0 km/h (0 Bft) O-SO 112 12,7 C 13,6 C 0,0 km/h (0 Bft)
24.08.2013 21:10 13,6 C 94 % 1016,3 hPa 0,0 l/m 0,0 km/h (0 Bft) N-NO 22 12,7 C 13,5 C 0,0 km/h (0 Bft)
24.08.2013 21:15 13,6 C 94 % 1016,3 hPa 0,0 l/m 0,0 km/h (0 Bft) N-NO 22 12,7 C 13,5 C 0,0 km/h (0 Bft)
24.08.2013 21:20 13,6 C 94 % 1016,8 hPa 0,0 l/m 0,0 km/h (0 Bft) O 90 12,7 C 13,5 C 0,0 km/h (0 Bft)
24.08.2013 21:25 13,6 C 94 % 1016,8 hPa 0,0 l/m 0,0 km/h (0 Bft) O 90 12,7 C 13,5 C 0,0 km/h (0 Bft)
24.08.2013 21:30 13,6 C 94 % 1016,8 hPa 0,0 l/m 0,0 km/h (0 Bft) O 90 12,7 C 13,5 C 0,0 km/h (0 Bft)
24.08.2013 21:35 13,5 C 94 % 1016,8 hPa 0,0 l/m 0,0 km/h (0 Bft) O-SO 112 12,6 C 13,4 C 0,0 km/h (0 Bft)
24.08.2013 21:40 13,5 C 94 % 1016,2 hPa 0,0 l/m 0,0 km/h (0 Bft) O-SO 112 12,6 C 13,3 C 0,0 km/h (0 Bft)
24.08.2013 21:45 13,5 C 94 % 1016,2 hPa 0,0 l/m 0,0 km/h (0 Bft) O-NO 67 12,6 C 13,4 C 0,0 km/h (0 Bft)
24.08.2013 21:50 13,5 C 94 % 1016,2 hPa 0,0 l/m 0,0 km/h (0 Bft) O-NO 67 12,6 C 13,4 C 0,0 km/h (0 Bft)
24.08.2013 21:55 13,4 C 94 % 1016,2 hPa 0,0 l/m 0,0 km/h (0 Bft) S-SW 202 12,5 C 13,4 C 0,0 km/h (0 Bft)
24.08.2013 22:00 13,3 C 94 % 1015,9 hPa 0,0 l/m 0,0 km/h (0 Bft) SO 135 12,4 C 13,3 C 0,0 km/h (0 Bft)
24.08.2013 22:05 13,2 C 94 % 1015,9 hPa 0,0 l/m 0,0 km/h (0 Bft) O-SO 112 12,3 C 13,2 C 0,0 km/h (0 Bft)
24.08.2013 22:10 13,1 C 94 % 1015,9 hPa 0,0 l/m 0,0 km/h (0 Bft) N 360 12,2 C 13,1 C 0,0 km/h (0 Bft)
24.08.2013 22:15 13,1 C 94 % 1015,9 hPa 0,0 l/m 0,0 km/h (0 Bft) S-SW 202 12,2 C 13,1 C 0,0 km/h (0 Bft)
24.08.2013 22:20 13,0 C 94 % 1015,6 hPa 0,0 l/m 0,0 km/h (0 Bft) S 180 12,1 C 13,1 C 0,0 km/h (0 Bft)
24.08.2013 22:25 13,0 C 94 % 1015,6 hPa 0,0 l/m 0,0 km/h (0 Bft) O-SO 112 12,1 C 13,0 C 0,0 km/h (0 Bft)
24.08.2013 22:30 13,0 C 94 % 1015,6 hPa 0,0 l/m 0,0 km/h (0 Bft) O-SO 112 12,1 C 13,0 C 0,0 km/h (0 Bft)
24.08.2013 22:35 13,1 C 94 % 1015,6 hPa 0,0 l/m 0,0 km/h (0 Bft) O 90 12,2 C 13,0 C 0,0 km/h (0 Bft)
24.08.2013 22:40 13,1 C 94 % 1015,8 hPa 0,0 l/m 0,0 km/h (0 Bft) O-SO 112 12,2 C 13,1 C 0,0 km/h (0 Bft)
24.08.2013 22:45 13,2 C 94 % 1015,8 hPa 0,0 l/m 0,0 km/h (0 Bft) SO 135 12,3 C 13,1 C 0,0 km/h (0 Bft)
24.08.2013 22:50 13,3 C 94 % 1015,8 hPa 0,0 l/m 0,0 km/h (0 Bft) S-SO 157 12,4 C 13,2 C 0,0 km/h (0 Bft)
24.08.2013 22:55 13,4 C 94 % 1015,8 hPa 0,0 l/m 0,2 km/h (0 Bft) S 180 12,5 C 13,3 C 0,0 km/h (0 Bft)
24.08.2013 23:00 13,3 C 94 % 1015,5 hPa 0,0 l/m 0,2 km/h (0 Bft) O 90 12,4 C 13,3 C 1,8 km/h (1 Bft)
24.08.2013 23:05 13,3 C 94 % 1015,5 hPa 0,0 l/m 0,0 km/h (0 Bft) O 90 12,4 C 13,3 C 0,0 km/h (0 Bft)
24.08.2013 23:10 13,3 C 94 % 1015,5 hPa 0,0 l/m 0,0 km/h (0 Bft) O-SO 112 12,4 C 13,3 C 0,0 km/h (0 Bft)
24.08.2013 23:15 13,3 C 94 % 1015,5 hPa 0,0 l/m 0,2 km/h (0 Bft) S-SO 157 12,4 C 13,3 C 2,9 km/h (1 Bft)
24.08.2013 23:20 13,3 C 94 % 1015,4 hPa 0,0 l/m 0,2 km/h (0 Bft) S 180 12,4 C 13,3 C 0,0 km/h (0 Bft)
24.08.2013 23:25 13,3 C 95 % 1015,4 hPa 0,0 l/m 0,2 km/h (0 Bft) O-SO 112 12,5 C 13,3 C 0,0 km/h (0 Bft)
24.08.2013 23:30 13,2 C 95 % 1015,4 hPa 0,0 l/m 0,0 km/h (0 Bft) O-SO 112 12,4 C 13,2 C 0,0 km/h (0 Bft)
24.08.2013 23:35 13,2 C 95 % 1015,4 hPa 0,0 l/m 0,0 km/h (0 Bft) O 90 12,4 C 13,1 C 0,0 km/h (0 Bft)
24.08.2013 23:40 13,1 C 95 % 1015,4 hPa 0,0 l/m 0,0 km/h (0 Bft) O 90 12,3 C 13,1 C 0,0 km/h (0 Bft)
24.08.2013 23:45 13,1 C 95 % 1015,4 hPa 0,0 l/m 0,5 km/h (0 Bft) S 180 12,3 C 13,1 C 3,1 km/h (1 Bft)
24.08.2013 23:50 13,1 C 95 % 1015,4 hPa 0,0 l/m 1,3 km/h (1 Bft) S 180 12,3 C 13,1 C 2,7 km/h (1 Bft)
24.08.2013 23:55 13,1 C 95 % 1015,4 hPa 0,0 l/m 1,4 km/h (1 Bft) O 90 12,3 C 13,1 C 0,0 km/h (0 Bft)
_ Min-Zeit 06:20 11:25 16:35 - 23:40 - - 06:20 06:35 23:55
Minimum _ 9,3 C 40 % 1014,9 hPa - 0,0 km/h (0 Bft) - - 8,1 C 9,2 C 0,0 km/h (0 Bft)
_ Max-Zeit 11:25 23:55 00:35 17:30 17:25 - - 08:25 15:20 17:25
Maximum _ 26,6 C 95 % 1019,1 hPa 1,4 l/m 10,9 km/h
O-SO (2 Bft)
- - 15,4 C 30,3 C 30,9 km/h
O-SO (5 Bft)
Durchschnitt _ 16,4 C 77 % 1017,1 hPa #5,5 l/m 1,6 km/h (1 Bft) W-NW - 11,8 C 17,0 C 2,4 km/h (1 Bft)